Voltar ao catálogo

STARLINK-31923

AtivoComunicaçõesVLEO
NORAD 60600·PAYLOAD·🇺🇸 United States

Lançado Aug 20, 2024 de Cape Canaveral Space Force Station

Loading…

Próximas Passagens (próximas 24 horas)

TLE

AtualizadoSource: CelesTrak SupGP

Época: Sep 14, 2026, 20:51 UTC

1 60600C 24150T   26257.86923611 -.00049940  00000+0 -14751-2 0  2576
2 60600  53.1581 147.7279 0001274 102.5618 264.4085 15.34424290    15

Acompanhe STARLINK-31923 em tempo real com AllMySat

Download on the App Store